When you browse on this site, cookies collect data to enhance your experience and personalize the content and advertising you see.
Visit our Privacy Policy to learn more. By continuing to use the site, you agree to this use of cookies and data.
  • In Austria
  • List of Countries
  • For 7 days
  • Water Temperature
  • Satellite Maps
  • Weather Map
  • News
  • Weather Widgets
  • user-avatar
    Login

    Hourly Weather Novoselka

    Today, 16 February, Saturday

    Time Temperature Precipitation Wind Pressure Humidity
    00:00 -1°C° 0 mm 5 mps 742 mmHg 88%
    01:00 -1°C° 0 mm 5 mps 743 mmHg 88%
    02:00 -1°C° 0 mm 5 mps 743 mmHg 88%
    03:00 -2°C° 0 mm 5 mps 743 mmHg 88%
    04:00 -2°C° 0 mm 4 mps 744 mmHg 89%
    05:00 -2°C° 0 mm 4 mps 744 mmHg 90%
    06:00 -3°C° 0 mm 4 mps 744 mmHg 91%
    07:00 -4°C° 0 mm 3 mps 745 mmHg 93%
    08:00 -3°C° 0 mm 2 mps 745 mmHg 94%
    09:00 -3°C° 0 mm 2 mps 745 mmHg 95%
    10:00 -2°C° 0 mm 2 mps 745 mmHg 95%
    11:00 -2°C° 0 mm 2 mps 745 mmHg 96%
    12:00 -1°C° 0 mm 2 mps 744 mmHg 96%
    13:00 -1°C° 0 mm 3 mps 744 mmHg 96%
    14:00 -1°C° 0 mm 3 mps 743 mmHg 95%
    15:00 -1°C° 0 mm 3 mps 743 mmHg 95%
    16:00 -1°C° 0 mm 3 mps 742 mmHg 96%
    17:00 0°C° 0 mm 3 mps 742 mmHg 96%
    18:00 0°C° 0 mm 3 mps 741 mmHg 95%
    19:00 0°C° 0 mm 3 mps 740 mmHg 93%
    20:00 0°C° 0 mm 3 mps 739 mmHg 92%
    21:00 -2°C° 0 mm 4 mps 738 mmHg 91%
    22:00 -2°C° 0 mm 4 mps 737 mmHg 90%
    23:00 -2°C° 0 mm 4 mps 737 mmHg 89%

    Tomorrow, 17 February, Sunday

    Time Temperature Precipitation Wind Pressure Humidity
    00:00 -2°C° 0 mm 4 mps 736 mmHg 89%
    01:00 -2°C° 0 mm 5 mps 736 mmHg 89%
    02:00 -2°C° 0 mm 5 mps 735 mmHg 88%
    03:00 -1°C° 0 mm 5 mps 735 mmHg 89%
    04:00 -1°C° 0 mm 5 mps 735 mmHg 89%
    05:00 -1°C° 0 mm 5 mps 734 mmHg 89%
    06:00 -2°C° 0 mm 5 mps 734 mmHg 88%
    07:00 -2°C° 0 mm 5 mps 734 mmHg 86%
    08:00 -4°C° 0 mm 5 mps 734 mmHg 85%
    09:00 -4°C° 0 mm 6 mps 734 mmHg 83%
    10:00 -4°C° 0 mm 6 mps 734 mmHg 81%
    11:00 -4°C° 0 mm 7 mps 734 mmHg 79%
    12:00 -4°C° 0 mm 7 mps 734 mmHg 79%
    13:00 -4°C° 0 mm 7 mps 734 mmHg 78%
    14:00 -5°C° 0 mm 8 mps 734 mmHg 77%
    15:00 -5°C° 0.1 mm 8 mps 734 mmHg 78%
    16:00 -5°C° 0.1 mm 8 mps 735 mmHg 79%
    17:00 -4°C° 0.1 mm 7 mps 735 mmHg 80%
    18:00 -4°C° 0.1 mm 7 mps 736 mmHg 80%
    19:00 -6°C° 0.1 mm 7 mps 737 mmHg 80%
    20:00 -6°C° 0.1 mm 7 mps 738 mmHg 80%
    21:00 -6°C° 0.1 mm 7 mps 739 mmHg 79%
    22:00 -7°C° 0.1 mm 7 mps 739 mmHg 78%
    23:00 -7°C° 0.1 mm 7 mps 740 mmHg 78%

    Day after tomorrow, 18 February, Monday

    Time Temperature Precipitation Wind Pressure Humidity
    00:00 -8°C° 0 mm 7 mps 741 mmHg 78%
    01:00 -9°C° 0 mm 6 mps 742 mmHg 79%
    02:00 -9°C° 0 mm 6 mps 743 mmHg 80%
    03:00 -10°C° 0 mm 6 mps 743 mmHg 80%
    04:00 -10°C° 0 mm 6 mps 744 mmHg 81%
    05:00 -11°C° 0 mm 6 mps 745 mmHg 82%
    06:00 -11°C° 0 mm 5 mps 746 mmHg 83%
    07:00 -11°C° 0 mm 5 mps 747 mmHg 84%
    08:00 -12°C° 0 mm 5 mps 748 mmHg 86%
    09:00 -10°C° 0 mm 4 mps 749 mmHg 86%
    10:00 -10°C° 0 mm 4 mps 749 mmHg 85%
    11:00 -10°C° 0 mm 4 mps 750 mmHg 85%
    12:00 -9°C° 0 mm 4 mps 750 mmHg 86%
    13:00 -8°C° 0 mm 3 mps 751 mmHg 86%
    14:00 -8°C° 0 mm 3 mps 751 mmHg 86%
    15:00 -8°C° 0 mm 2 mps 751 mmHg 88%
    16:00 -9°C° 0 mm 2 mps 751 mmHg 90%
    17:00 -9°C° 0 mm 1 mps 752 mmHg 93%
    18:00 -10°C° 0 mm 2 mps 752 mmHg 92%
    19:00 -10°C° 0 mm 2 mps 752 mmHg 91%
    20:00 -12°C° 0 mm 2 mps 751 mmHg 90%
    21:00 -9°C° 0 mm 2 mps 751 mmHg 88%
    22:00 -9°C° 0 mm 3 mps 750 mmHg 85%
    23:00 -9°C° 0 mm 4 mps 750 mmHg 83%

    19 February, Tuesday

    Time Temperature Precipitation Wind Pressure Humidity
    00:00 -9°C° 0 mm 4 mps 749 mmHg 81%
    01:00 -8°C° 0 mm 5 mps 748 mmHg 79%
    02:00 -8°C° 0 mm 5 mps 748 mmHg 77%
    03:00 -7°C° 0 mm 5 mps 747 mmHg 77%
    04:00 -7°C° 0 mm 5 mps 746 mmHg 77%
    05:00 -6°C° 0 mm 5 mps 745 mmHg 78%
    06:00 -6°C° 0 mm 5 mps 745 mmHg 80%
    07:00 -5°C° 0 mm 4 mps 744 mmHg 82%
    08:00 -5°C° 0 mm 4 mps 744 mmHg 84%
    09:00 -4°C° 0 mm 4 mps 744 mmHg 85%
    10:00 -3°C° 0 mm 4 mps 743 mmHg 86%
    11:00 -2°C° 0 mm 5 mps 743 mmHg 87%
    12:00 -2°C° 0 mm 5 mps 743 mmHg 88%
    13:00 -1°C° 0 mm 5 mps 742 mmHg 88%
    14:00 -1°C° 0 mm 5 mps 742 mmHg 89%
    15:00 -1°C° 0 mm 5 mps 741 mmHg 89%
    16:00 -1°C° 0 mm 5 mps 741 mmHg 88%
    17:00 -1°C° 0 mm 5 mps 740 mmHg 88%
    18:00 -1°C° 0 mm 5 mps 740 mmHg 88%
    19:00 -1°C° 0 mm 5 mps 740 mmHg 87%
    20:00 -1°C° 0 mm 5 mps 739 mmHg 87%
    21:00 -2°C° 0 mm 5 mps 739 mmHg 88%
    22:00 -2°C° 0 mm 5 mps 739 mmHg 88%
    23:00 -2°C° 0 mm 5 mps 738 mmHg 89%

    20 February, Wednesday

    Time Temperature Precipitation Wind Pressure Humidity
    00:00 -2°C° 0.1 mm 4 mps 738 mmHg 89%
    01:00 -2°C° 0.1 mm 4 mps 737 mmHg 90%
    02:00 -2°C° 0.1 mm 4 mps 737 mmHg 91%
    03:00 -2°C° 0.2 mm 4 mps 736 mmHg 91%
    04:00 -2°C° 0.2 mm 4 mps 735 mmHg 92%
    05:00 -2°C° 0.2 mm 4 mps 735 mmHg 92%
    06:00 -2°C° 0.5 mm 4 mps 734 mmHg 93%
    07:00 -2°C° 0.5 mm 4 mps 734 mmHg 93%
    08:00 -2°C° 0.5 mm 4 mps 733 mmHg 94%
    09:00 -1°C° 0.5 mm 3 mps 733 mmHg 95%
    10:00 -1°C° 0.5 mm 3 mps 732 mmHg 96%
    11:00 0°C° 0.5 mm 3 mps 732 mmHg 97%
    12:00 0°C° 0.4 mm 3 mps 732 mmHg 97%
    13:00 0°C° 0.4 mm 3 mps 731 mmHg 98%
    14:00 0°C° 0.4 mm 3 mps 731 mmHg 98%
    15:00 0°C° 0.2 mm 3 mps 731 mmHg 97%
    16:00 0°C° 0.2 mm 3 mps 731 mmHg 95%
    17:00 0°C° 0.2 mm 3 mps 731 mmHg 94%
    18:00 0°C° 0.1 mm 3 mps 730 mmHg 94%
    19:00 -1°C° 0.1 mm 3 mps 730 mmHg 94%
    20:00 -1°C° 0.1 mm 2 mps 730 mmHg 95%
    21:00 -1°C° 0.1 mm 3 mps 730 mmHg 94%
    22:00 -1°C° 0.1 mm 3 mps 730 mmHg 93%
    23:00 -1°C° 0.1 mm 4 mps 730 mmHg 92%

    21 February, Thursday

    Time Temperature Precipitation Wind Pressure Humidity
    00:00 -2°C° 0.1 mm 4 mps 730 mmHg 92%
    01:00 -1°C° 0.1 mm 3 mps 730 mmHg 92%
    02:00 -1°C° 0.1 mm 3 mps 731 mmHg 92%
    03:00 -2°C° 0.2 mm 4 mps 731 mmHg 92%
    04:00 -2°C° 0.2 mm 4 mps 731 mmHg 92%
    05:00 -2°C° 0.2 mm 4 mps 732 mmHg 91%
    06:00 -4°C° 0.1 mm 5 mps 732 mmHg 89%
    07:00 -4°C° 0.1 mm 5 mps 733 mmHg 87%
    08:00 -5°C° 0.1 mm 6 mps 733 mmHg 85%
    09:00 -5°C° 0.1 mm 6 mps 734 mmHg 86%
    10:00 -5°C° 0.1 mm 5 mps 734 mmHg 86%
    11:00 -6°C° 0.1 mm 5 mps 735 mmHg 87%
    12:00 -6°C° 0.4 mm 6 mps 735 mmHg 87%
    13:00 -8°C° 0.4 mm 6 mps 736 mmHg 87%
    14:00 -9°C° 0.4 mm 6 mps 737 mmHg 87%
    15:00 -9°C° 0.2 mm 6 mps 737 mmHg 85%
    16:00 -10°C° 0.2 mm 6 mps 738 mmHg 84%
    17:00 -10°C° 0.2 mm 6 mps 739 mmHg 83%
    18:00 -10°C° 0.1 mm 6 mps 740 mmHg 83%
    19:00 -10°C° 0.1 mm 6 mps 741 mmHg 82%
    20:00 -10°C° 0.1 mm 6 mps 742 mmHg 82%
    21:00 -11°C° 0.1 mm 6 mps 743 mmHg 81%
    22:00 -11°C° 0.1 mm 6 mps 744 mmHg 81%
    23:00 -12°C° 0.1 mm 6 mps 745 mmHg 80%
    Show more